Wind_Speed
22 23 23 19 19 20 20 21 22 24 25 25 27 30 31 33 32 30 30 32 34 35 32 35 29 30 34 35 37 40 42 39 40 34 31 30 29 30 38 38 40 42 46
27 28 25 22 21 21 21 22 24 26 29 31 33 34 36 37 38 38 38 38 38 36 35 37 36 38 40 41 42 44 46 45 42 42 36 33 30 41 37 40 40 40 35
29 25 21 19 19 21 22 27 30 32 35 35 37 40 40 39 41 42 41 42 43 42 43 44 45 46 47 48 48 49 49 49 47 42 41 38 36 35 36 35 37 34 34
19 13 12 21 23 24 26 29 33 34 37 40 43 41 40 39 41 43 45 46 48 49 50 51 52 52 52 52 52 52 51 50 47 40 40 38 36 33 31 31 32 34 34
20 16 16 22 27 29 30 30 31 34 37 39 39 40 41 43 45 48 49 51 52 53 54 55 56 56 55 55 55 54 52 48 45 39 38 39 34 29 28 31 34 33 30
13 16 20 24 31 32 30 30 31 34 38 40 42 44 45 47 49 51 53 54 55 57 59 58 58 58 57 55 52 51 49 47 43 39 36 38 31 33 39 32 35 28 24
31 37 39 34 37 34 30 31 34 38 44 45 46 47 48 49 51 51 51 51 52 52 52 52 53 51 50 48 46 45 45 42 38 33 36 34 27 24 24 30 30 23 21
25 29 34 32 34 29 31 35 38 43 45 45 47 48 47 45 46 46 47 47 47 48 48 48 48 46 42 39 38 40 38 33 30 31 34 30 28 24 32 29 27 24 20
15 27 32 33 32 31 35 38 42 44 44 44 43 42 42 42 43 43 43 42 42 40 39 38 38 36 32 31 32 32 26 25 27 31 32 30 32 29 26 29 26 22 24
24 28 30 31 31 35 37 38 40 41 39 37 37 38 38 38 38 38 39 39 37 35 30 28 26 26 23 22 24 23 23 24 25 26 27 26 31 29 27 25 23 23 23
26 28 27 31 32 33 35 36 35 32 32 31 30 30 32 33 34 35 36 34 33 30 27 24 22 21 22 20 20 20 22 24 23 24 25 26 22 24 24 24 21 18 18
22 25 26 28 29 30 31 30 28 27 26 25 27 30 32 34 34 33 34 30 27 23 25 18 20 20 19 19 19 19 21 23 25 25 25 24 23 25 25 22 18 16 17
21 23 25 26 26 26 25 25 23 22 21 22 26 28 28 30 32 32 29 26 21 19 18 19 22 21 18 15 18 19 21 24 27 27 30 27 26 27 25 22 19 19 19
23 24 23 22 23 21 21 20 20 19 18 20 18 21 28 31 27 22 20 20 19 19 16 17 18 14 11 12 11 15 21 25 26 30 31 28 29 28 25 23 21 20 19
22 20 19 19 17 17 17 16 16 16 17 17 15 22 29 31 33 24 18 18 16 14 11 13 12 10 10 9 6 10 13 19 23 35 38 33 34 32 26 23 21 20 18
18 18 18 16 15 14 14 15 15 15 15 14 16 23 27 30 30 28 18 17 12 11 10 7 7 12 12 13 11 3 3 12 13 22 12 17 22 19 16 19 19 18 17
18 18 16 14 13 13 14 14 14 13 12 11 16 19 20 28 29 27 25 20 14 14 15 13 10 6 5 15 14 11 9 2 12 10 16 18 21 20 21 16 15 13 13
15 14 13 12 10 11 13 13 10 10 10 11 13 14 16 15 23 29 29 28 15 10 14 15 13 10 9 11 8 6 6 5 3 12 16 17 17 18 18 20 20 16 12
14 12 12 10 10 10 11 9 7 7 7 8 10 11 15 16 18 18 22 30 32 18 16 15 13 19 20 21 17 16 10 9 2 5 6 12 16 21 19 12 12 9 10
14 13 11 10 8 7 10 9 8 6 6 6 6 8 10 14 17 18 20 20 20 26 29 21 8 10 13 16 17 20 21 15 14 15 15 17 15 14 12 8 4 1 1
12 10 8 7 8 8 10 8 7 6 6 4 4 6 8 12 15 15 16 18 17 16 16 18 17 15 12 12 12 12 13 14 13 12 10 11 10 10 8 6 5 4 6
15 12 11 10 10 10 9 9 7 8 7 3 4 5 9 13 14 13 14 15 14 14 14 14 12 11 10 9 8 10 8 6 9 9 8 6 4 3 2 2 3 5 7
20 18 17 15 14 15 9 9 9 10 6 2 1 5 8 11 13 11 11 13 13 12 13 12 9 9 10 8 7 5 7 7 5 5 5 2 2 4 7 8 9 11 12
23 23 22 19 18 21 10 10 10 7 5 4 3 6 9 9 13 13 10 12 13 12 10 11 10 7 8 10 8 7 8 8 8 3 5 9 8 10 9 9 10 11 13
23 25 24 18 17 11 10 9 7 6 7 5 3 4 7 8 13 12 10 11 12 11 9 8 10 10 10 9 6 6 7 8 7 7 8 10 11 12 13 14 14 15 17
18 22 23 20 22 18 15 8 9 6 2 2 1 3 7 9 11 13 12 14 8 7 9 7 9 9 8 8 8 8 8 7 7 8 9 11 13 14 16 18 19 21 22
Wind_Direction
223 226 239 241 242 246 254 264 272 275 279 281 283 286 288 293 296 300 296 287 279 278 280 279 281 285 284 285 287 290 293 293 291 293 292 283 275 266 266 276 272 273 273
230 235 237 237 239 248 262 277 283 286 286 286 286 288 290 290 292 291 291 289 288 285 282 281 283 285 284 285 286 286 288 289 287 290 285 283 269 273 275 274 278 279 275
244 243 237 252 257 270 281 282 283 285 286 288 289 293 294 292 288 289 288 286 285 283 281 282 284 285 286 286 286 285 285 285 285 283 282 280 276 273 272 280 286 284 287
231 240 270 277 268 271 278 284 290 292 292 292 292 291 290 289 288 288 287 286 285 285 285 286 286 285 285 285 284 284 284 283 283 279 276 274 270 268 269 281 289 288 289
198 299 268 263 273 279 281 285 292 294 292 291 291 292 293 293 292 291 290 289 289 288 287 286 285 285 285 284 284 284 282 278 276 269 268 268 268 264 272 292 294 292 285
289 287 286 270 274 275 279 286 292 297 298 298 298 297 296 295 293 291 290 288 286 286 286 286 285 283 282 280 277 277 275 273 268 265 259 259 262 265 268 280 287 286 277
287 286 273 271 267 272 282 293 298 300 297 297 296 296 296 295 294 293 292 292 292 292 290 288 286 284 282 280 276 272 270 268 263 257 252 253 255 270 241 268 278 271 264
268 262 267 262 265 280 289 294 296 294 294 294 294 296 298 297 296 296 295 295 294 291 291 289 288 286 282 276 272 270 268 261 255 247 245 247 244 246 257 267 267 256 255
241 252 257 267 278 285 291 294 293 292 294 298 302 302 302 303 301 299 297 294 292 292 292 293 291 289 282 272 268 267 262 251 246 242 245 241 237 241 251 258 259 247 251
254 255 269 278 282 287 289 289 293 297 301 303 304 306 307 305 304 302 298 295 294 295 296 298 295 293 288 276 267 258 248 244 243 246 251 250 252 253 248 250 244 243 245
265 272 274 280 285 287 293 295 298 302 305 307 311 311 312 313 311 308 304 300 294 294 294 295 296 296 292 283 270 252 243 237 233 237 236 247 256 236 238 243 232 228 227
279 278 279 282 288 294 296 300 305 308 311 315 318 323 322 318 316 314 311 311 297 289 298 309 306 297 295 285 265 251 243 237 235 242 229 233 228 240 239 228 219 220 209
282 287 291 296 298 298 303 306 308 311 314 322 327 330 327 322 319 318 320 321 313 313 302 301 308 304 303 292 271 252 244 239 241 239 236 233 228 232 226 220 220 219 217
297 296 299 300 300 302 303 306 311 315 319 326 339 3 4 358 347 330 324 324 324 308 316 305 298 305 305 304 293 261 253 246 240 241 238 234 221 226 216 220 221 221 224
300 300 298 298 301 303 306 309 311 315 319 327 337 341 351 0 2 355 339 334 332 329 329 325 329 332 325 305 292 279 279 255 225 219 215 214 201 204 202 210 215 220 223
306 302 299 300 300 301 304 309 312 316 318 321 340 354 5 12 10 7 356 358 358 360 354 341 353 344 353 16 26 9 272 271 255 214 181 134 153 162 179 194 199 204 212
312 305 294 288 293 303 312 315 312 310 308 314 342 355 8 21 24 23 21 14 12 15 12 24 25 9 27 77 56 68 69 350 237 247 235 213 205 179 176 175 173 184 190
310 305 294 293 303 311 313 314 312 312 311 328 346 3 9 13 28 30 24 20 14 18 33 32 31 38 82 102 141 150 97 46 93 154 172 189 186 204 203 169 163 172 175
315 303 286 286 293 303 322 324 317 327 333 336 355 6 12 20 18 19 24 28 31 33 32 35 56 62 56 57 56 43 43 36 346 239 220 232 226 245 250 240 224 214 170
312 296 281 281 281 314 326 321 319 318 332 331 0 9 15 18 20 23 23 25 26 39 45 44 38 68 56 64 68 57 49 63 73 85 83 76 72 70 61 66 66 354 267
301 282 273 266 276 302 320 320 323 323 333 325 355 7 17 17 12 12 13 16 25 30 38 50 59 66 60 59 63 62 66 56 53 65 86 87 88 92 103 134 176 206 252
293 273 259 258 273 279 302 307 294 300 317 339 331 325 352 3 9 18 13 13 21 25 30 34 43 39 35 29 39 39 31 46 56 66 62 42 43 49 13 310 275 261 269
278 271 261 254 259 261 274 295 283 283 301 225 18 338 331 353 3 359 6 14 8 6 11 13 23 11 17 21 13 11 22 26 12 352 354 341 354 340 318 303 278 263 268
267 257 256 251 254 261 262 280 282 273 250 247 239 338 342 353 345 341 339 338 348 355 356 355 0 20 17 12 356 353 357 359 356 304 302 316 295 301 315 311 302 292 286
260 245 238 246 254 253 243 275 267 242 268 269 244 325 335 335 350 345 350 340 327 334 349 0 1 2 358 350 345 348 331 324 338 343 334 327 325 323 321 317 314 308 303
255 239 231 234 234 238 231 257 259 229 179 165 217 269 321 336 345 342 341 347 351 343 343 331 345 352 6 17 12 3 354 344 336 333 328 325 319 316 315 312 310 306 303
Height
3177 3178 3179 3181 3181 3182 3182 3182 3182 3181 3180 3178 3177 3174 3172 3171 3168 3164 3162 3160 3158 3158 3156 3158 3154 3152 3151 3150 3148 3146 3143 3143 3139 3142 3140 3138 3136 3136 3135 3133 3132 3131 3128
3171 3173 3175 3176 3178 3178 3179 3178 3178 3176 3174 3171 3168 3166 3164 3162 3160 3157 3155 3152 3150 3149 3148 3145 3145 3143 3141 3140 3138 3136 3134 3132 3132 3130 3131 3130 3129 3126 3127 3125 3123 3120 3117
3167 3168 3172 3174 3175 3175 3175 3173 3171 3169 3167 3165 3160 3159 3156 3153 3150 3147 3144 3142 3140 3138 3137 3135 3134 3132 3129 3127 3125 3123 3122 3120 3119 3120 3120 3120 3120 3118 3118 3116 3113 3110 3107
3163 3168 3168 3170 3169 3168 3167 3166 3163 3160 3158 3156 3152 3149 3146 3143 3140 3137 3133 3130 3128 3126 3123 3121 3119 3118 3116 3114 3111 3109 3108 3106 3105 3107 3108 3108 3109 3108 3108 3106 3104 3102 3099
3158 3160 3160 3163 3164 3163 3161 3158 3154 3151 3149 3146 3142 3139 3135 3132 3128 3124 3121 3118 3115 3112 3109 3107 3105 3102 3100 3099 3096 3095 3093 3092 3092 3093 3095 3096 3098 3098 3098 3097 3096 3094 3090
3155 3156 3155 3154 3155 3154 3152 3149 3146 3143 3140 3136 3132 3128 3125 3122 3117 3113 3108 3104 3101 3097 3093 3091 3088 3086 3084 3082 3081 3079 3078 3077 3079 3080 3083 3084 3086 3087 3089 3089 3090 3087 3085
3151 3149 3151 3147 3147 3145 3143 3139 3137 3134 3131 3128 3123 3118 3115 3110 3104 3099 3094 3089 3085 3081 3078 3075 3071 3069 3066 3065 3064 3063 3062 3064 3066 3071 3072 3074 3077 3078 3078 3084 3082 3081 3081
3144 3143 3142 3141 3139 3137 3134 3132 3129 3127 3124 3119 3114 3108 3102 3098 3092 3086 3081 3076 3072 3068 3064 3060 3056 3053 3051 3050 3049 3049 3050 3052 3055 3058 3061 3065 3069 3069 3071 3074 3074 3075 3076
3131 3135 3134 3134 3131 3128 3126 3124 3121 3119 3114 3108 3102 3097 3092 3086 3080 3075 3070 3066 3061 3057 3053 3049 3044 3040 3039 3039 3037 3039 3039 3043 3046 3049 3052 3055 3058 3061 3064 3065 3066 3068 3070
3129 3128 3127 3125 3123 3122 3119 3116 3113 3109 3104 3099 3094 3088 3082 3077 3072 3066 3061 3055 3050 3047 3045 3040 3036 3032 3031 3030 3029 3030 3032 3036 3039 3042 3045 3048 3049 3052 3055 3057 3059 3061 3063
3123 3122 3121 3119 3117 3114 3110 3108 3104 3100 3096 3091 3086 3082 3076 3070 3063 3056 3050 3045 3041 3038 3036 3034 3030 3028 3026 3024 3024 3024 3026 3028 3031 3034 3037 3040 3041 3043 3046 3050 3052 3054 3058
3116 3115 3112 3110 3107 3105 3102 3099 3096 3093 3090 3086 3082 3075 3069 3061 3054 3047 3041 3037 3033 3031 3029 3027 3024 3022 3020 3019 3018 3019 3020 3022 3024 3027 3030 3033 3036 3039 3042 3044 3047 3050 3054
3108 3106 3104 3102 3100 3098 3096 3093 3091 3088 3085 3082 3078 3071 3064 3055 3047 3040 3035 3031 3027 3025 3023 3021 3018 3016 3014 3013 3013 3013 3014 3016 3018 3021 3023 3026 3029 3033 3036 3040 3043 3047 3050
3101 3099 3097 3096 3095 3093 3091 3089 3086 3083 3080 3078 3073 3066 3060 3052 3044 3037 3032 3028 3024 3021 3018 3016 3014 3012 3011 3008 3007 3007 3008 3010 3012 3015 3018 3021 3022 3026 3031 3036 3040 3043 3046
3095 3093 3092 3091 3089 3088 3086 3084 3081 3078 3075 3072 3068 3063 3057 3049 3042 3034 3030 3026 3021 3018 3015 3013 3011 3009 3006 3004 3002 3003 3003 3003 3003 3000 3005 3009 3009 3016 3023 3029 3034 3038 3041
3090 3088 3087 3085 3084 3083 3082 3080 3077 3073 3071 3069 3066 3060 3054 3048 3041 3035 3030 3025 3021 3017 3014 3011 3009 3008 3006 3003 3001 3000 3000 3000 3000 2999 2993 2999 3000 3010 3018 3023 3028 3032 3036
3085 3084 3083 3082 3081 3079 3077 3075 3072 3070 3068 3066 3063 3060 3055 3051 3044 3038 3033 3027 3022 3019 3014 3011 3009 3008 3007 3005 3004 3003 3002 3001 3001 3002 3005 3000 3003 3006 3012 3020 3025 3030 3033
3081 3080 3079 3078 3077 3076 3074 3072 3070 3068 3066 3064 3062 3059 3056 3052 3047 3041 3036 3030 3024 3020 3017 3015 3012 3011 3008 3007 3008 3007 3007 3007 3007 3007 3009 3009 3011 3012 3013 3016 3018 3024 3029
3077 3076 3075 3075 3074 3073 3070 3069 3068 3066 3065 3063 3062 3059 3056 3052 3048 3044 3039 3035 3030 3024 3022 3019 3017 3016 3014 3013 3012 3012 3011 3011 3009 3010 3010 3013 3014 3014 3016 3019 3022 3024 3025
3074 3073 3072 3071 3071 3070 3068 3066 3066 3065 3063 3062 3061 3058 3056 3053 3049 3046 3042 3038 3035 3032 3027 3023 3022 3022 3020 3019 3018 3018 3017 3016 3016 3015 3014 3015 3015 3016 3018 3021 3025 3030 3033
3069 3069 3069 3068 3068 3067 3066 3065 3064 3063 3062 3061 3059 3057 3055 3052 3050 3047 3044 3041 3038 3035 3033 3031 3029 3027 3026 3024 3023 3022 3021 3021 3020 3019 3020 3019 3021 3022 3024 3027 3029 3031 3032
3065 3064 3065 3065 3065 3065 3064 3062 3062 3062 3061 3060 3058 3056 3054 3053 3050 3048 3046 3043 3041 3038 3035 3033 3032 3030 3029 3028 3026 3026 3026 3025 3024 3024 3024 3024 3025 3026 3026 3027 3028 3028 3029
3060 3060 3060 3061 3061 3061 3061 3060 3059 3059 3059 3058 3057 3055 3054 3052 3051 3049 3047 3044 3042 3040 3038 3035 3033 3032 3031 3030 3029 3028 3028 3027 3027 3027 3027 3027 3027 3027 3027 3027 3026 3026 3026
3054 3054 3055 3056 3057 3056 3056 3056 3056 3056 3056 3056 3055 3054 3053 3052 3051 3048 3046 3044 3042 3040 3039 3037 3035 3033 3032 3031 3031 3030 3029 3028 3028 3028 3028 3027 3026 3026 3025 3024 3024 3023 3022
3045 3046 3049 3051 3052 3052 3053 3053 3053 3054 3054 3053 3053 3053 3052 3051 3050 3047 3045 3044 3042 3040 3038 3037 3036 3034 3033 3031 3031 3030 3030 3029 3029 3028 3028 3027 3025 3025 3023 3021 3019 3017 3016
3038 3039 3042 3045 3047 3046 3048 3050 3050 3052 3052 3052 3052 3051 3050 3049 3048 3046 3044 3042 3040 3039 3038 3037 3036 3034 3033 3032 3031 3030 3030 3029 3028 3027 3026 3024 3022 3019 3017 3015 3013 3011 3009